Regional Weather Roundup
Issued by NWS Green Bay, WI

Home | Current Version | Previous Version | Text Only | Print | Product List | Glossary On
Versions: 1 2 3 4 5 6 7 8 9 10 11 12 13 14 15 16 17 18 19 20 21 22 23 24 25 26 27 28 29 30 31 32 33 34 35 36 37 38 39 40 41 42 43 44 45 46 47 48 49 50
000
ASUS43 KGRB 241711
RWRGRB

NORTH-CENTRAL AND NORTHEAST WISCONSIN REGIONAL WEATHER ROUNDUP
NATIONAL WEATHER SERVICE GREEN BAY WI
1200 PM CDT SUN JUL 24 2016

WIZ005-009-010>012-018-019-241800-
NORTH CENTRAL WISCONSIN

CITY           SKY/WX    TMP DP  RH WIND       PRES   REMARKS
IRONWOOD       CLOUDY    77  70  78 W12G17    29.77R
MANITOWISH WTR PTSUNNY   76  70  82 W9G16     29.82R
ARBOR VITAE    CLOUDY    77  71  80 W9        29.83R
EAGLE RIVER    CLOUDY    76  67  73 SW12      29.82S
LAND O LAKES   PTSUNNY   78  68  70 W7        29.82S
RHINELANDER    CLOUDY    76  69  79 W8        29.84R
PHILLIPS       CLOUDY    76  70  82 W5        29.83R
ANTIGO         CLOUDY    73  73  99 CALM      29.83S FOG
TOMAHAWK       CLOUDY    75  70  86 CALM      29.84R
MERRILL        CLOUDY    74  74 100 W3        29.83S
$$

WIZ013-073-241800-
NORTHEAST WISCONSIN

CITY           SKY/WX    TMP DP  RH WIND       PRES   REMARKS
IRON MOUNTAIN  PTSUNNY   80  69  69 S5        29.79S
MARINETTE      CLOUDY    77  73  87 SW9       29.79
OCONTO         CLOUDY    78  78 100 SW9       29.79S
$$

WIZ017-030-035>037-045-241800-
CENTRAL WISCONSIN

CITY           SKY/WX    TMP DP  RH WIND       PRES   REMARKS
MEDFORD        CLOUDY    76  74  94 W9        29.84R
WAUSAU         CLOUDY    76  73  91 W5        29.81R
MOSINEE        CLOUDY    75  75 100 W7        29.84R
MARSHFIELD     CLOUDY    78  71  79 W10       29.83R
WISC RAPIDS    CLOUDY    81  74  79 W9        29.84R
STEVENS POINT  CLOUDY    75  74  95 W8        29.83R FOG
WAUPACA        CLOUDY    83  80  89 SW8       29.81S HX  95
SHAWANO        CLOUDY    79  74  85 S3        29.80F
CLINTONVILLE   CLOUDY    79  73  83 SW8       29.81S
WAUTOMA        CLOUDY    84  78  82 SW7       29.82S HX  95
$$

WIZ038-039-048-051-241800-
FOX VALLEY

CITY           SKY/WX    TMP DP  RH WIND       PRES   REMARKS
NWS GREEN BAY  CLOUDY    76  76 100 S12       29.80F
APPLETON       CLOUDY    75  75 100 S6        29.81S
OSHKOSH        CLOUDY    81  76  84 SW8       29.82S
FOND DU LAC    CLOUDY    82  77  84 SW10      29.83S HX  90
$$

WIZ022-050-052-241800-
EAST CENTRAL WISCONSIN

CITY           SKY/WX    TMP DP  RH WIND       PRES   REMARKS
EPHRAIM        CLOUDY    74  71  89 S3        29.79F
WASHINGTON ISL NOT AVBL
STURGEON BAY   CLOUDY    80  73  79 S13       29.80F
MANITOWOC      CLOUDY    72  69  90 MISG      29.84S
SHEBOYGAN      CLOUDY    74  71  91 S10G17    29.84S FOG
$$

LMZ563-521-522-541>543-241800-
LAKESHORE

STATION/POSITION TIME  TEMP    WIND        PRES    VSBY  WAVE
                       AIR SEA DIR/SP/G                  HT/PER
                 (UTC) (F)     (DEG/KT/KT) (MB)    (MI)  (FT/S)
SHEBOYGAN LKSHOR 1700   65     180/ 13/ 14 1010.9S
KEWAUNEE LKSHORE 1600   72     200/ 13/ 18 1009.2F
NORTHPORT PIER   1600   72     160/  8/ 14 1009.1R
N MID LAKE BUOY  1650   70 69  200/ 17/ 21 1008.3F         4/ 5
S GREEN BAY BUOY 1630   75 74  200/ 10/ 14   N/A
CHAMBERS ISLAND  1600   74     160/  7/ 12 1008.8S
MENOMINEE LKSHOR 1600   74     180/  8/ 11 1008.2R
$$



USA.gov is the U.S. government's official web portal to all federal, state and local government web resources and services.